Regional Weather Roundup
Issued by NWS Portland, ME

Current Version | Previous Version | Text Only | Print | Product List | Glossary Off
Versions: 1 2 3 4 5 6 7 8 9 10 11 12 13 14 15 16 17 18 19 20 21 22 23 24 25 26 27 28 29 30 31 32 33 34 35 36 37 38 39 40 41 42 43 44 45 46 47 48 49 50
780 ASUS41 KGYX 181810 RWRGYX WEATHER ROUNDUP FOR MAINE AND NEW HAMPSHIRE NATIONAL WEATHER SERVICE GRAY ME 100 PM EST THU JAN 18 2018 MEZ002-005-006-010-012-015-018-020-021-024-026-027-029-181900- MAINE CITY SKY/WX TMP DP RH WIND PRES REMARKS PORTLAND FAIR 28 19 69 W7 29.88F 6HR MIN TEMP: 15; 6HR MAX TEMP: 29; 6HR PCP: TRACE; SANFORD FAIR 29 19 66 W6 29.87F BAR HARBOR FAIR 33 18 53 VRB5 29.85F WISCASSET FAIR 31 18 58 VRB6 29.88F 6HR MIN TEMP: 9; 6HR MAX TEMP: 31; ROCKLAND FAIR 28 18 66 VRB3 29.86F FRYEBURG FAIR 28 20 71 CALM 29.85F 6HR MIN TEMP: 8; 6HR MAX TEMP: 28; LEWISTONAUBURN FAIR 30 17 58 NW12 29.85 AUGUSTA FAIR 28 15 58 NW13G18 29.85F WCI 17 6HR MIN TEMP: 18; 6HR MAX TEMP: 28; WATERVILLE FAIR 29 17 61 NW6 29.80F BANGOR FAIR 27 16 63 W7 29.84F 6HR MIN TEMP: 6; 6HR MAX TEMP: 27; GREENVILLE NOT AVBL MILLINOCKET MIX PCPN 28 15 58 W16G24 29.81F WCI 16 6HR MIN TEMP: 16; 6HR MAX TEMP: 28; 6HR PCP: TRACE; HOULTON FAIR 24 16 71 SW8 29.76F 6HR MIN TEMP: 7; 6HR MAX TEMP: 25; PRESQUE ISLE PTSUNNY 26 15 63 W13 29.76F WCI 15 6HR MIN TEMP: 18; 6HR MAX TEMP: 26; 6HR PCP: TRACE; FRENCHVILLE PTSUNNY 21 13 71 W10 29.70S WCI 10 6HR MIN TEMP: 15; 6HR MAX TEMP: 22; CARIBOU FAIR 26 13 57 MISG 29.73F 6HR MIN TEMP: 18; 6HR MAX TEMP: 26; $$ NHZ002-005-008-009-011-012-014-181900- NEW HAMPSHIRE CITY SKY/WX TMP DP RH WIND PRES REMARKS PORTSMOUTH MOSUNNY 28 17 62 W8 29.86F ROCHESTER FAIR 27 17 66 NW10 29.85F WCI 17 6HR MIN TEMP: 13; 6HR MAX TEMP: 28; NASHUA FAIR 29 18 63 NW10 29.90F WCI 20 MANCHESTER FAIR 27 15 61 NW13G22 29.89F WCI 16 6HR MIN TEMP: 13; 6HR MAX TEMP: 27; CONCORD FAIR 26 15 63 NW9 29.89F 6HR MIN TEMP: 14; 6HR MAX TEMP: 26; PLYMOUTH LGT SNOW 28 16 59 W9G16 29.86F BERLIN CLOUDY 24 15 68 VRB6 29.83F 6HR MIN TEMP: 6; 6HR MAX TEMP: 24; WHITEFIELD CLOUDY 24 15 68 CALM 29.85F 6HR MIN TEMP: 8; 6HR MAX TEMP: 24; JAFFREY FAIR 25 16 68 N9 29.85F 6HR MIN TEMP: 5; 6HR MAX TEMP: 26; KEENE FLURRIES 31 18 58 CALM 29.91F LEBANON FAIR 25 15 66 CALM 29.90F 6HR MIN TEMP: -6; 6HR MAX TEMP: 25; MT WASHINGTON PTSUNNY 21 -2 35 W53 N/A WCI -1 6HR MIN TEMP: 8; 6HR MAX TEMP: 21; $$ VTZ005-007-008-181900- VERMONT CITY SKY/WX TMP DP RH WIND PRES REMARKS ST JOHNSBURY N/A 23 17 78 MISG 29.87F MONTPELIER CLOUDY 21 16 81 NE6 29.89F BURLINGTON PTSUNNY 23 14 68 SW8 29.92F $$ MAZ007-012-024-CTZ003-RIZ002-NYZ038-NYZ072-181900- SOUTHERN NEW ENGLAND AND NY CITY SKY/WX TMP DP RH WIND PRES REMARKS BOSTON FAIR 30 17 58 NW13 29.88F WCI 20 WORCESTER FAIR 23 12 62 NW14 29.84F WCI 11 NANTUCKET PTSUNNY 33 28 81 N17 29.83F PROVIDENCE FAIR 33 17 51 N16G23 29.87F HARTFORD FAIR 27 13 55 NW12G21 29.93F WCI 17 ALBANY FAIR 24 10 55 W17G23 30.01F WCI 11 NEW YORK CITY FAIR 31 11 43 NW16 29.95F WCI 20 $$ ANZ081-ANZ082-ANZ150-NHZ014-MEZ023>029-181900- COASTAL MARINE OBSERVATIONS STATION/POSITION TIME TEMP WIND PRES WAVE AIR SEA DIR/SP/G HT/PER (UTC) (F) (DEG/KT/KT) (MB) (FT/S) MOUNT DESERT ROC 1800 27 320/ 9/ 11 1011.1F MATINICUS ROCK 1800 27 360/ 10/ 12 1010.4F ISLE OF SHOALS 1800 27 320/ 10/ 11 1011.4F GEORGES BANK BUO 1650 44 53 1007.8 5/ 7 $$ .............KEY.............. WCI - WIND CHILL TC - TEMPERATURE IN CELSIUS VSB - VISIBILITY IN MILES HX - HEAT INDEX FAIR- INDICATES FEW OR NO CLOUDS BELOW 12,000 FT, WITH NO SIGNIFICANT WEATHER AND/OR OBSTRUCTIONS TO VISIBILITY.

USA.gov is the U.S. government's official web portal to all federal, state and local government web resources and services.